Weather History for Manhattan, KS

Change the Weather History Date:

Tuesday, November 18, 2014

  Actual Average Record
Temperature  
Mean Temperature 24 °F 41 °F  
Max Temperature 45 °F 54 °F 75 °F (1999)
Min Temperature 2 °F 29 °F 2 °F (2014)
Degree Days  
Heating Degree Days 41 24  
Month to date heating degree days 505 356  
Since 1 July heating degree days 805 755  
Cooling Degree Days 0 0  
Month to date cooling degree days 0 0  
Year to date cooling degree days 1581 1361  
Moisture  
Dew Point 12 °F    
Average Humidity 57    
Maximum Humidity 91    
Minimum Humidity 22    
Precipitation  
Precipitation 0.00 in 0.04 in 0.17 in (2004)
Month to date precipitation 0.04 1.12  
Year to date precipitation 20.66 31.05  
Sea Level Pressure  
Sea Level Pressure 30.21 in    
Wind  
Wind Speed 9 mph (SW)    
Max Wind Speed 20 mph    
Max Gust Speed 25 mph    
Visibility 10 miles    
Events      
T = Trace of Precipitation, MM = Missing Value Source: NWS Daily Summary

Daily Weather History Graph

Daily Weather History Graph

Search for Another Location

Airport:

Trip Planner

Search our weather history database for the weather conditions in past years. The results will help you decide how hot, cold, wet, or windy it might be!

Date:

Astronomy

Nov. 18, 2014 Rise Set
Actual Time 7:13 AM CST 5:10 PM CST
Civil Twilight 6:44 AM CST 5:38 PM CST
Nautical Twilight 6:11 AM CST 6:11 PM CST
Astronomical Twilight 5:40 AM CST 6:43 PM CST
Moon 3:14 AM CST (11/18) 3:04 PM CST (11/18)
Length of Visible Light 10h 54m
Length of Day
9h 56m
Waning Crescent, 15% of the Moon is Illuminated
Nov 18
Waning Crescent
Nov 22
New
Nov 29
First Quarter
Dec 6
Full
Dec 14
Last Quarter

Hourly Weather History & Observations

Time (CST) Temp. Windchill Dew Point Humidity Pressure Visibility Wind Dir Wind Speed Gust Speed Precip Events Conditions
12:52 AM 7.0 °F -3.3 °F 3.0 °F 84% 30.40 in 10.0 mi WSW 5.8 mph - N/A   Clear
1:52 AM 10.0 °F 3.6 °F 6.1 °F 84% 30.38 in 10.0 mi WSW 3.5 mph - N/A   Partly Cloudy
2:52 AM 5.0 °F - 1.9 °F 87% 30.38 in 10.0 mi Calm Calm - N/A   Clear
3:52 AM 7.0 °F - 5.0 °F 92% 30.37 in 10.0 mi Calm Calm - N/A   Clear
4:52 AM 3.0 °F - -0.0 °F 87% 30.38 in 10.0 mi Calm Calm - N/A   Clear
5:52 AM 5.0 °F - 1.0 °F 84% 30.38 in 10.0 mi Calm Calm - N/A   Clear
6:52 AM 7.0 °F -1.7 °F 3.9 °F 87% 30.38 in 10.0 mi WSW 4.6 mph - N/A   Clear
7:52 AM 10.0 °F -0.9 °F 5.0 °F 80% 30.38 in 10.0 mi SW 6.9 mph - N/A   Clear
8:52 AM 15.1 °F 4.2 °F 9.0 °F 77% 30.37 in 10.0 mi SSW 8.1 mph - N/A   Clear
9:52 AM 23.0 °F 14.7 °F 12.9 °F 65% 30.34 in 10.0 mi SW 6.9 mph - N/A   Clear
10:52 AM 30.0 °F 18.7 °F 12.0 °F 47% 30.31 in 10.0 mi SW 16.1 mph - N/A   Clear
11:52 AM 33.1 °F 23.4 °F 12.9 °F 43% 30.27 in 10.0 mi SW 13.8 mph - N/A   Clear
12:52 PM 37.9 °F 29.6 °F 12.0 °F 35% 30.21 in 10.0 mi SSW 13.8 mph - N/A   Clear
1:52 PM 41.0 °F 34.3 °F 10.0 °F 28% 30.16 in 10.0 mi SSW 11.5 mph - N/A   Clear
2:52 PM 44.1 °F 37.7 °F 9.0 °F 24% 30.13 in 10.0 mi SW 12.7 mph - N/A   Clear
3:52 PM 44.1 °F 37.1 °F 10.9 °F 26% 30.09 in 10.0 mi SSW 15.0 mph - N/A   Clear
4:52 PM 39.0 °F 32.8 °F 14.0 °F 36% 30.08 in 10.0 mi SSW 9.2 mph - N/A   Clear
5:52 PM 37.0 °F 29.3 °F 16.0 °F 42% 30.06 in 10.0 mi SSW 11.5 mph - N/A   Clear
6:52 PM 36.0 °F 28.0 °F 19.0 °F 50% 30.05 in 10.0 mi SSW 11.5 mph - N/A   Clear
7:52 PM 35.1 °F 26.4 °F 21.9 °F 59% 30.03 in 10.0 mi SW 12.7 mph - N/A   Clear
8:52 PM 35.1 °F 24.5 °F 24.1 °F 64% 29.99 in 10.0 mi SW 18.4 mph - N/A   Clear
9:52 PM 35.1 °F 26.9 °F 25.0 °F 67% 29.97 in 10.0 mi SW 11.5 mph - N/A   Clear
10:52 PM 35.1 °F 27.4 °F 26.1 °F 70% 29.96 in 10.0 mi SW 10.4 mph - N/A   Clear
11:52 PM 37.9 °F 30.9 °F 26.1 °F 62% 29.96 in 10.0 mi WSW 10.4 mph - N/A   Clear